Location: Newark
(14.1000°N, 87.2167°W)
Time: 00:08:40
(UTC+00:00)

Hubble Space Telescope - Pass Details

Date: 23 July 2019
Orbit: 536 x 540 km, 28.5° (Epoch: 23 August)

Event Time Altitude Azimuth Distance (km) Brightness Sun altitude
Exits shadow 09:21:15 21° 108° (ESE) 1,231 2.9 -28.9°
Drops below altitude 10° 09:23:04 10° 89° (E) 1,777 4.1 -28.6°
Sets 09:25:31 0° 78° (ENE) 2,667 5.4 -28.1°
